FALCON 9 R/B, 61911

Orbit data source: Space-Track

FALCON 9 R/B, 61911 is space debris in HEO originally from a launch on Mon, 11 Nov 2024 UTC launched from the Air Force Eastern Test Range (AFETR). Debris objects in space refer to the collection of defunct objects orbiting the Earth. Examples of debris include non-operational satellites, rocket bodies, and fragments generated from explosions, collisions, or faulty payload assembly.

Not visible in the next 10 days
Identifier
61911, 2024-206B
Orbit
HEO
Country
Flag of USUS
Related business
Manufacturer
SpaceX
Mission
Spacecraft
Bus & Motor
F9ST2, Unknown motor
Mass
~4,000 kg wet, ~4,000 kg dry
Launch date (UTC)
2024-11-11 (1 year ago)
Launch vehicle
Unknown
Launch site
Air Force Eastern Test Range (AFETR)
Object type
Payload
Rocket body
Debris
Shape & HBR
Cyl, 7.8 m
Radar Cross Section
39.980 m², Large (>1 m²)

Expand to show TLE details & history
Last TLE update: 1 day ago

TLE from 1 day ago
0 FALCON 9 R/B
1 61911U 24206B   25341.64020519  .00033282  00000-0  38828-2 0  9993
2 61911  27.6003 358.0651 7197949  67.8136 350.6220  2.40555139  9150
Epoch: 2025-12-07T15:21Z
TLE epoch observation values (Epoch: 2025-12-07T15:21:53.728Z)
Latitude
-0.00022°
Longitude
50.94076°
Altitude
2,501.761 km
Speed
8.534 km/s
True Right ascension
23h 52m 15s
True Declination
0° 00' 01"
Sunlit
Object was in daylight at epoch
Visualization orbit readout
Latitude
Unknown
Longitude
Unknown
Altitude
Unknown
Speed
Unknown
Apparent Right ascension
Unknown
Apparent Declination
Unknown
Sunlit
N/A
Visualization observer readout
Local Sidereal Time
22:12:20
Azimuth
Unknown
Elevation
Unknown
Doppler factor
Unknown
Orbital elements
Apogee altitude
34,092.407 km
Perigee altitude
215.703 km
Semi-major axis
23,532.192 km
Eccentricity
0.71979
Inclination
27.6003°
RAAN
358.0651°
Arg. of periapsis
67.8136°
True anomaly
292.85253°
Mean anomaly
350.622°
Eccentric anomaly
330.0037°
Mean motion
0.60124 °/min
Orbital period
598.76 mins
BSTAR
0.0038828
Loading maneuver chart data...
Computing Atmospheric mass density...
Loading historical data...
Loading historical data...
Loading historical data...
Loading historical data...
Loading historical data...
Loading historical data...
Loading historical data...
Other satellites on launch #206 in the year 2024 (2024-11-11 UTC)

Documentation

Showing up to 5 results
|